User: anonymous   Login
Location: Newark
(48.1500°N, 13.1167°E)
Time: 10:57:52
(UTC+00:00)
Language:

KAITUO 1B - Orbit

View from above orbital plane
View from above orbital plane
View from above satellite
View from above satellite

Ground track
Ground track

The orbit data is extracted from the following two-line orbital elements,

1 40912U 15049P   21335.16953574  .00003596  00000-0  15781-3 0  9997
2 40912  97.4440 343.0898 0012120 280.1638 144.1508 15.22539081343554
Epoch (UTC): 01 December 2021 04:04:07
Eccentricity: 0.0012120
inclination: 97.4440°
perigee height: 490 km
apogee height: 506 km
right ascension of ascending node: 343.0898°
argument of perigee: 280.1638°
revolutions per day: 15.22539081
mean anomaly at epoch: 144.1508°
orbit number at epoch: 34355

The dashed part of the orbit path shows where the satellite is in the earth's shadow,  

DLR